Simultaneous Nadir Overpasses (SNOs) Predictions

Prediction of SNOs between LANDSAT-8 and NOAA-19 Satellite Orbit:

Table of predicted SNOs for the next 14.0 days since TLE Epoch: 7/6/2024
Index Date (LANDSAT-8) Time (LANDSAT-8) Lat,Lon (LANDSAT-8) SZA (LANDSAT-8 ) Date (NOAA-19) Time (NOAA-19) Lat,Lon (NOAA-19) SZA (NOAA-19 ) Distance(km) Time Diff (sec)
1 07/06/2024 20:42:07 80.66, -96.58 59.65 07/06/2024 20:42:04 80.66, -96.59 59.64 0.39 3
2 07/09/2024 03:05:20 80.64, 167.36 59.85 07/09/2024 03:04:57 80.64, 167.30 59.84 0.97 23
3 07/09/2024 03:54:46 -80.67, -24.70 120.10 07/09/2024 03:55:51 -80.67, -24.88 120.09 3.23 65
4 07/11/2024 09:28:32 80.63, 71.48 60.13 07/11/2024 09:27:49 80.63, 71.46 60.11 0.37 43
5 07/11/2024 10:17:58 -80.66,-120.56 119.82 07/11/2024 10:18:42 -80.67,-120.50 119.79 1.24 44
6 07/13/2024 15:51:44 80.61, -24.52 60.41 07/13/2024 15:50:41 80.62, -24.45 60.40 1.44 63
7 07/13/2024 16:41:10 -80.64, 143.44 119.53 07/13/2024 16:41:34 -80.65, 143.46 119.52 0.81 24
8 07/15/2024 23:04:21 -80.64, 47.65 119.18 07/15/2024 23:04:25 -80.65, 47.72 119.17 1.39 4



Historial Predications of SNOs between LANDSAT-8 and NOAA-19
